Back to catalog

CZ-3B DEB

AliveGTO
NORAD 39335·DEBRIS·🇨🇳 China

Launched Sep 4, 2010 from Xichang Satellite Launch Center

Loading…

TLE

StaleSource: Space-Track

Epoch: Sep 4, 2026, 10:57 UTC

1 39335U 10042G   26247.45648189 -.00000294  00000-0 -31470-2 0  9990
2 39335  28.2425  12.7622 7363702   1.7190   6.7631  1.97558436 85626

Track CZ-3B DEB in real time with AllMySat

Download on the App Store